QPF
0.00 0.00 0.00 0.00 0.02 0.03 0.01 0.04 0.05 0.03 0.02 0.01 0.00 0.02 0.04 0.05 0.06 0.08 0.24 0.25 0.20 0.14
0.00 0.00 0.02 0.01 0.01 0.01 0.00 0.01 0.01 0.02 0.03 0.01 0.03 0.04 0.07 0.11 0.10 0.06 0.17 0.22 0.18 0.18
0.00 0.00 0.00 0.00 0.02 0.01 0.01 0.01 0.00 0.01 0.01 0.05 0.08 0.06 0.09 0.09 0.08 0.03 0.04 0.05 0.04 0.09
0.00 0.01 0.02 0.01 0.00 0.00 0.00 0.00 0.00 0.01 0.03 0.04 0.07 0.02 0.02 0.02 0.00 0.01 0.03 0.04 0.02 0.09
0.01 0.04 0.05 0.02 0.00 0.00 0.00 0.00 0.00 0.00 0.02 0.04 0.01 0.00 0.00 0.00 0.01 0.02 0.02 0.04 0.04 0.06
0.03 0.07 0.06 0.01 0.00 0.00 0.00 0.00 0.00 0.00 0.02 0.01 0.00 0.00 0.00 0.00 0.00 0.04 0.05 0.00 0.00 0.00
0.01 0.07 0.02 0.01 0.00 0.00 0.00 0.00 0.00 0.00 0.00 0.00 0.00 0.00 0.00 0.01 0.02 0.11 0.10 0.02 0.00 0.00
0.00 0.00 0.01 0.01 0.00 0.00 0.00 0.00 0.00 0.00 0.00 0.01 0.00 0.00 0.00 0.08 0.11 0.14 0.09 0.05 0.02 0.02
0.00 0.00 0.00 0.00 0.00 0.00 0.00 0.00 0.00 0.01 0.00 0.01 0.00 0.00 0.00 0.02 0.11 0.11 0.03 0.02 0.01 0.01
0.00 0.00 0.00 0.00 0.00 0.01 0.01 0.02 0.02 0.02 0.02 0.00 0.00 0.00 0.00 0.01 0.12 0.10 0.04 0.00 0.02 0.03
0.00 0.00 0.00 0.00 0.01 0.04 0.06 0.07 0.06 0.05 0.02 0.00 0.00 0.00 0.00 0.01 0.09 0.08 0.05 0.05 0.06 0.03
0.00 0.00 0.00 0.00 0.03 0.08 0.15 0.11 0.12 0.15 0.03 0.00 0.00 0.00 0.00 0.00 0.06 0.07 0.07 0.10 0.09 0.04
0.00 0.00 0.00 0.01 0.04 0.09 0.14 0.13 0.12 0.12 0.05 0.00 0.00 0.00 0.00 0.01 0.04 0.04 0.05 0.04 0.02 0.02
0.00 0.00 0.00 0.03 0.06 0.05 0.08 0.07 0.06 0.09 0.08 0.02 0.00 0.00 0.00 0.00 0.04 0.03 0.02 0.00 0.00 0.00
MSLP
1003.34 1003.69 1003.95 1004.21 1004.50 1004.96 1005.07 1005.39 1005.64 1005.64 1005.84 1005.89 1005.88 1005.96 1006.14 1006.41 1006.46 1006.45 1006.44 1006.63 1006.52 1006.66
1003.36 1003.66 1004.08 1004.32 1004.60 1004.78 1005.03 1005.32 1005.51 1005.71 1005.84 1005.72 1005.75 1005.90 1006.13 1006.28 1006.31 1006.33 1006.36 1006.47 1006.50 1006.59
1003.26 1003.64 1004.05 1004.36 1004.85 1004.94 1004.89 1005.25 1005.48 1005.66 1005.73 1005.85 1006.01 1006.10 1006.25 1006.38 1006.31 1006.42 1006.63 1006.84 1006.90 1006.79
1003.30 1003.80 1004.23 1004.54 1004.77 1005.00 1005.08 1005.11 1005.32 1005.60 1005.70 1005.91 1006.21 1006.32 1006.32 1006.44 1006.50 1006.62 1007.00 1007.03 1007.09 1007.19
1003.35 1003.88 1004.49 1004.62 1004.83 1005.06 1005.11 1005.21 1005.34 1005.41 1005.69 1005.97 1006.13 1006.44 1006.45 1006.57 1006.54 1006.78 1006.99 1007.33 1007.44 1007.43
1003.56 1003.98 1004.51 1004.65 1004.78 1004.77 1004.99 1005.09 1005.20 1005.38 1005.76 1005.92 1006.37 1006.54 1006.63 1006.73 1006.69 1006.81 1007.23 1007.57 1007.82 1007.88
1003.47 1004.07 1004.42 1004.61 1004.74 1004.78 1004.75 1004.96 1005.16 1005.57 1005.70 1006.04 1006.57 1006.81 1006.82 1006.88 1006.89 1006.93 1007.36 1007.65 1008.04 1008.12
1003.48 1003.98 1004.33 1004.61 1004.79 1004.77 1004.86 1005.17 1005.57 1005.60 1005.83 1006.13 1006.69 1007.20 1007.28 1007.03 1006.98 1007.26 1007.70 1008.01 1008.23 1008.40
1003.29 1003.98 1004.33 1004.72 1004.89 1005.06 1005.12 1005.40 1005.54 1005.84 1006.04 1006.55 1007.21 1007.72 1007.79 1007.52 1007.31 1007.49 1007.99 1008.42 1008.79 1008.96
1003.00 1003.76 1004.30 1004.65 1004.88 1005.19 1005.39 1005.58 1005.87 1006.20 1006.49 1007.21 1007.96 1008.18 1008.13 1007.89 1007.68 1007.88 1008.41 1008.68 1008.97 1009.42
1002.76 1003.38 1003.99 1004.51 1004.99 1005.38 1005.58 1005.81 1006.14 1006.48 1006.71 1007.40 1008.36 1008.55 1008.45 1008.22 1008.13 1008.25 1008.56 1008.80 1009.20 1009.78
1002.56 1003.41 1003.96 1004.51 1005.08 1005.54 1005.81 1006.07 1006.32 1006.59 1006.92 1007.58 1008.49 1008.81 1008.79 1008.59 1008.44 1008.68 1008.88 1009.16 1009.65 1010.17
1002.49 1003.39 1003.95 1004.56 1005.14 1005.59 1005.87 1006.09 1006.48 1006.83 1007.20 1007.79 1008.59 1009.00 1008.99 1008.84 1008.71 1009.02 1009.41 1009.86 1010.39 1010.72
1002.42 1003.35 1004.03 1004.69 1005.19 1005.64 1006.10 1006.36 1006.70 1007.11 1007.56 1008.08 1008.65 1009.23 1009.17 1009.01 1008.96 1009.34 1009.70 1010.32 1010.93 1011.56
Thickness
5697 5690 5685 5680 5674 5666 5662 5656 5654 5652 5648 5646 5644 5641 5636 5630 5628 5628 5627 5627 5630 5630
5692 5687 5680 5676 5672 5667 5662 5658 5654 5652 5649 5649 5647 5643 5638 5633 5631 5631 5631 5630 5630 5631
5689 5684 5678 5674 5666 5664 5662 5658 5654 5651 5651 5649 5646 5642 5637 5634 5633 5632 5631 5629 5629 5632
5685 5680 5675 5670 5666 5663 5661 5659 5656 5653 5651 5649 5645 5644 5640 5637 5634 5631 5627 5629 5629 5629
5684 5677 5670 5667 5664 5662 5659 5659 5656 5656 5653 5651 5649 5645 5642 5638 5637 5632 5629 5627 5627 5627
5679 5674 5668 5666 5664 5664 5661 5659 5658 5657 5654 5653 5649 5647 5645 5642 5641 5638 5633 5629 5626 5626
5679 5672 5669 5666 5664 5663 5663 5660 5659 5657 5656 5654 5649 5647 5646 5646 5643 5641 5636 5633 5629 5630
5678 5673 5669 5665 5663 5663 5662 5660 5656 5658 5657 5655 5651 5647 5646 5648 5646 5642 5636 5633 5634 5633
5677 5671 5667 5663 5661 5660 5660 5658 5657 5656 5656 5653 5649 5643 5643 5647 5647 5643 5638 5634 5633 5634
5680 5672 5666 5664 5661 5659 5658 5657 5654 5653 5653 5649 5644 5641 5642 5645 5649 5645 5640 5639 5638 5636
5681 5676 5671 5666 5661 5658 5657 5655 5653 5651 5652 5649 5643 5640 5642 5645 5650 5648 5645 5644 5641 5637
5684 5676 5673 5667 5662 5658 5655 5652 5652 5651 5651 5647 5643 5640 5642 5647 5650 5648 5646 5645 5642 5640
5688 5679 5674 5669 5664 5659 5656 5654 5651 5649 5648 5645 5642 5639 5641 5647 5650 5646 5644 5642 5639 5637
5692 5682 5677 5671 5667 5662 5657 5654 5650 5647 5646 5645 5643 5640 5641 5646 5650 5647 5645 5641 5638 5635